Location: Bonny Doon Airfield
(37.0704°N, 122.1252°W)
Time: 16:00:04
(UTC-07:00)

OTV 5 (USA 277) - Pass Details

Date: 11 October 2017
Orbit: 404 x 417 km, 43.0° (Epoch: 07 September)

Event Time Altitude Azimuth Distance (km) Brightness Sun altitude
Rises 20:34:10 0° 271° (W) 2,349 ? -24.2°
Reaches altitude 10° 20:36:24 10° 281° (W) 1,487 ? -24.6°
Enters shadow 20:38:34 28° 313° (NW) 805 ? -25.1°
